Temp_Advection
nan nan nan nan nan nan nan nan nan nan nan nan nan nan nan nan nan nan nan nan nan nan nan nan nan nan nan
nan -1 -1 -0 -1 -1 -2 -1 0 0 -0 -1 -0 0 1 -0 -1 -0 -0 -0 -1 -1 -1 -0 -0 -0 nan
nan -1 -1 -0 -0 -1 -2 -2 -1 -0 0 -1 -1 -1 -0 0 -1 -1 -0 -0 -0 -1 -1 -1 -0 0 nan
nan -0 -0 -0 -0 -1 -1 -1 -1 -1 -0 -0 -1 -1 -1 0 -0 -1 -1 -0 0 -0 -1 -1 -0 0 nan
nan -0 0 -0 -1 -0 -0 -1 -0 -1 -0 0 -0 -1 -0 -0 -0 -0 -1 -1 -0 0 -0 -1 -0 0 nan
nan -0 -0 0 -0 -0 -0 -1 -1 -0 -1 -1 -0 -0 -0 -0 -0 -0 -0 -1 -1 -0 0 -0 -0 0 nan
nan -0 -0 -0 0 -0 0 0 -0 -0 -1 -1 -1 -2 -1 -0 -0 -0 -0 -1 -1 -0 -0 0 -0 -0 nan
nan -0 -0 -1 -0 0 0 -0 -0 -0 -0 -1 -1 -1 -1 -0 0 0 -0 -0 -1 -0 0 -0 -0 0 nan
nan -0 -0 -0 -0 -0 0 0 0 -0 -0 -1 -0 -1 -2 -1 -0 0 0 -0 0 0 -0 -0 0 0 nan
nan -1 -0 -0 -0 -0 0 0 -0 -0 0 -0 -0 -1 -1 -1 -0 0 -0 -1 -0 0 0 -0 0 0 nan
nan -1 -1 -0 -0 -0 -0 -0 -0 -0 -0 -0 -0 -0 -1 -1 -1 -0 -0 -0 0 -0 0 0 -0 0 nan
nan -0 -1 -0 -0 -0 -0 0 -0 -0 -0 -0 -0 -0 -0 -0 -1 -1 -1 -1 -0 0 0 -0 0 0 nan
nan -0 -0 -0 -0 -0 -0 -0 -0 -0 -1 -1 -0 -0 -0 -0 -0 -0 -1 -1 -0 -0 0 0 0 0 nan
nan -0 -0 -0 -0 0 -0 -0 -0 -1 -1 -1 -0 -0 -0 -0 -0 -0 -0 -0 -0 -0 0 0 -0 0 nan
nan 0 -0 -0 -1 -0 0 -0 -0 -0 -0 -1 -1 -0 -0 0 -0 -0 -0 -0 -0 -0 0 -0 -0 0 nan
nan 0 0 -0 -0 -0 0 -0 -0 -0 0 -0 -0 -1 -1 -0 -0 -0 -0 -0 -0 -0 -0 -0 0 0 nan
nan nan nan nan nan nan nan nan nan nan nan nan nan nan nan nan nan nan nan nan nan nan nan nan nan nan nan
Wind_Speed
35 35 32 31 32 31 33 34 30 30 32 32 33 31 29 29 30 27 27 26 26 24 21 19 16 14 16
35 36 34 31 26 29 32 34 38 38 36 28 24 29 30 31 31 30 28 27 26 26 24 21 19 16 17
37 34 33 27 31 35 37 33 32 32 29 24 24 25 31 34 34 29 30 29 27 26 25 23 21 18 18
32 33 32 31 34 35 34 30 30 28 30 31 30 29 30 33 33 24 26 29 27 26 26 24 21 20 19
33 32 33 29 31 32 31 32 33 26 30 33 30 24 23 24 25 24 26 26 27 26 25 25 22 20 20
33 34 34 34 31 30 30 31 38 32 26 35 33 33 30 29 32 27 26 25 24 27 26 25 23 21 21
32 34 35 33 31 31 29 32 33 33 30 37 32 38 34 27 23 27 26 26 24 24 26 25 24 21 22
27 31 30 30 28 29 28 33 32 32 28 31 30 32 32 28 25 22 25 26 24 23 25 25 24 22 21
26 28 30 31 30 31 30 34 28 28 24 25 24 30 33 28 21 21 21 23 25 25 23 23 23 21 21
27 28 28 27 24 23 26 26 27 23 19 25 30 27 26 25 15 8 11 17 19 21 24 26 25 25 23
27 29 26 23 24 22 18 21 23 26 27 27 30 31 26 27 26 23 18 13 10 13 19 22 25 26 24
25 24 26 24 23 24 23 22 24 29 29 24 27 30 23 26 25 23 18 17 15 12 13 19 23 23 21
26 29 26 22 24 26 28 29 27 23 22 21 23 20 19 22 24 22 20 16 13 10 11 15 22 26 22
24 25 23 22 23 24 23 23 26 27 22 17 15 17 19 21 20 21 17 13 9 9 13 13 17 25 23
23 24 24 25 24 21 22 22 22 23 24 18 15 14 17 19 21 19 16 15 14 13 13 16 19 17 21
23 23 24 24 23 19 18 19 20 20 20 16 16 17 17 18 13 13 13 12 12 13 14 14 16 24 25
21 23 24 24 23 21 20 19 20 18 18 15 18 16 17 19 19 13 13 11 11 11 12 14 15 14 15
Wind_Direction
301 304 304 301 305 303 298 300 301 294 291 292 284 282 288 283 281 280 276 276 277 275 273 269 260 243 227
302 303 306 310 299 297 301 300 297 293 295 301 286 278 280 284 280 275 274 271 271 272 270 263 259 246 233
299 302 303 295 295 292 298 300 296 294 297 298 288 281 282 285 287 280 269 266 265 266 266 261 256 247 236
303 300 300 301 308 310 311 311 306 307 299 295 288 284 278 280 285 282 272 263 261 261 262 259 254 246 237
307 305 303 303 305 304 311 302 308 304 302 300 306 295 279 274 276 282 287 267 257 253 257 257 251 244 234
300 303 303 302 304 306 308 305 304 306 302 297 298 294 294 284 276 277 280 272 256 249 248 252 251 244 231
296 297 300 302 302 302 303 297 298 300 299 297 295 293 299 299 295 279 273 267 259 244 240 241 245 241 230
297 300 301 300 297 295 298 299 289 294 298 299 306 304 306 298 286 283 272 266 262 238 232 234 236 234 230
295 288 287 290 294 295 296 319 297 297 311 310 306 311 310 306 307 280 269 268 267 240 228 224 224 225 229
304 303 304 304 305 302 296 301 316 298 306 306 306 318 311 316 303 298 291 274 264 251 233 227 222 221 222
304 307 307 311 308 306 299 299 298 296 299 306 305 302 305 306 306 305 284 280 277 261 234 225 223 223 216
300 303 307 308 306 306 300 297 296 294 296 294 290 297 309 313 304 307 301 283 279 254 241 224 224 224 219
294 297 306 305 300 299 299 302 299 298 296 287 286 293 303 299 300 298 301 298 283 253 235 223 213 221 210
293 298 304 306 298 306 309 312 309 310 312 291 304 308 304 303 300 296 295 282 286 290 220 230 220 221 223
293 300 300 301 305 298 299 305 308 315 320 307 303 293 301 306 300 297 298 283 268 273 267 231 222 225 224
294 291 301 305 305 305 300 301 305 316 324 327 311 312 310 310 314 320 306 291 277 267 262 253 241 224 221
291 289 298 302 301 294 293 294 299 305 314 317 317 310 315 306 316 321 305 307 296 278 262 250 247 242 232
Height
1480 1478 1476 1474 1472 1470 1466 1463 1460 1458 1457 1455 1453 1450 1447 1446 1444 1443 1443 1442 1442 1442 1441 1441 1440 1440 1441
1473 1471 1469 1468 1465 1462 1460 1457 1453 1451 1448 1445 1444 1443 1440 1438 1436 1435 1435 1435 1435 1435 1435 1435 1435 1436 1436
1466 1466 1463 1461 1458 1456 1453 1448 1446 1443 1440 1439 1437 1436 1434 1431 1428 1427 1426 1427 1427 1428 1429 1429 1429 1430 1431
1462 1459 1458 1455 1452 1447 1442 1441 1439 1437 1434 1432 1429 1427 1425 1423 1420 1418 1418 1418 1419 1421 1422 1423 1423 1424 1426
1457 1453 1450 1448 1446 1443 1438 1434 1432 1432 1428 1424 1422 1419 1417 1414 1413 1412 1411 1410 1411 1413 1415 1416 1418 1419 1420
1452 1448 1445 1443 1440 1437 1434 1430 1425 1425 1421 1416 1416 1412 1411 1408 1405 1403 1402 1402 1402 1404 1407 1409 1411 1413 1414
1446 1443 1440 1438 1435 1432 1428 1425 1421 1417 1415 1409 1409 1403 1402 1400 1398 1396 1393 1393 1394 1395 1398 1401 1404 1407 1409
1440 1436 1434 1431 1429 1427 1423 1419 1414 1412 1410 1404 1403 1397 1394 1391 1390 1387 1386 1384 1385 1387 1389 1393 1396 1400 1402
1433 1430 1428 1425 1423 1421 1417 1413 1408 1406 1404 1401 1397 1393 1388 1384 1382 1380 1379 1378 1377 1380 1382 1384 1388 1393 1396
1425 1422 1420 1417 1415 1414 1411 1408 1405 1400 1400 1399 1394 1392 1384 1380 1376 1374 1373 1372 1371 1372 1375 1379 1381 1385 1390
1418 1416 1413 1411 1409 1407 1406 1403 1400 1397 1396 1394 1390 1387 1384 1377 1373 1372 1369 1369 1368 1368 1369 1373 1375 1377 1382
1413 1411 1408 1406 1404 1402 1400 1398 1396 1393 1389 1389 1385 1382 1379 1375 1370 1368 1367 1365 1365 1365 1365 1368 1371 1373 1377
1408 1405 1403 1400 1399 1397 1394 1391 1388 1386 1384 1382 1380 1377 1375 1372 1369 1366 1364 1362 1362 1362 1363 1364 1367 1369 1372
1402 1399 1397 1395 1393 1392 1389 1386 1382 1379 1378 1377 1375 1373 1370 1368 1365 1363 1361 1361 1360 1361 1362 1363 1365 1367 1370
1397 1394 1392 1390 1387 1386 1385 1382 1379 1376 1372 1371 1370 1368 1367 1364 1361 1359 1358 1357 1358 1358 1360 1361 1363 1364 1367
1391 1389 1387 1384 1382 1381 1380 1378 1376 1374 1371 1368 1366 1364 1362 1361 1360 1356 1355 1354 1354 1355 1356 1357 1359 1361 1363
1383 1383 1381 1379 1377 1375 1375 1374 1372 1370 1368 1366 1364 1362 1359 1357 1356 1355 1353 1352 1352 1352 1352 1353 1355 1357 1359